Time,TemperatureF,DewpointF,PressureIn,WindDirection,WindDirectionDegrees,WindSpeedMPH,WindSpeedGustMPH,Humidity,HourlyPrecipIn,Conditions,Clouds,dailyrainin,SolarRadiationWatts/m^2,SoftwareType,DateUTC
2013-09-30 00:02:00,59.1,49.3,29.87,SSE,165,2.0,2.0,70,0.00,,---,0.00,0.00,VWS V14.01,2013-09-30 05:02:00,
2013-09-30 00:07:00,59.0,49.6,29.87,SSE,165,2.0,3.0,71,0.00,,---,0.00,0.00,VWS V14.01,2013-09-30 05:07:00,
2013-09-30 00:12:00,59.0,49.6,29.86,SSE,165,3.0,3.0,71,0.00,,---,0.00,0.00,VWS V14.01,2013-09-30 05:12:00,
2013-09-30 00:17:00,59.0,49.6,29.86,SSE,166,2.0,3.0,71,0.00,,---,0.00,0.00,VWS V14.01,2013-09-30 05:17:00,
2013-09-30 00:22:00,59.0,49.6,29.86,South,173,3.0,3.0,71,0.00,,---,0.00,0.00,VWS V14.01,2013-09-30 05:22:00,
2013-09-30 00:27:00,59.1,49.7,29.86,SSE,164,0.0,2.0,71,0.00,,---,0.00,0.00,VWS V14.01,2013-09-30 05:27:00,
2013-09-30 00:32:00,59.1,49.7,29.85,SSE,164,2.0,3.0,71,0.00,,---,0.00,0.00,VWS V14.01,2013-09-30 05:32:00,
2013-09-30 00:37:00,59.1,49.7,29.85,SSE,165,4.0,4.0,71,0.00,,---,0.00,0.00,VWS V14.01,2013-09-30 05:37:00,
2013-09-30 00:42:00,59.2,49.8,29.84,South,180,3.0,4.0,71,0.00,,---,0.00,0.00,VWS V14.01,2013-09-30 05:42:00,
2013-09-30 00:47:00,59.3,49.9,29.84,South,178,5.0,6.0,71,0.00,,---,0.00,0.00,VWS V14.01,2013-09-30 05:47:00,
2013-09-30 00:52:00,59.5,50.1,29.84,South,169,3.0,5.0,71,0.00,,---,0.00,0.00,VWS V14.01,2013-09-30 05:52:00,
2013-09-30 00:57:00,59.6,50.2,29.84,SSE,150,1.0,4.0,71,0.00,,---,0.00,0.00,VWS V14.01,2013-09-30 05:57:00,
2013-09-30 01:02:00,59.8,50.0,29.83,SSE,167,3.0,4.0,70,0.00,,---,0.00,0.00,VWS V14.01,2013-09-30 06:02:00,
2013-09-30 01:07:00,59.9,50.1,29.84,South,182,2.0,3.0,70,0.00,,---,0.00,0.00,VWS V14.01,2013-09-30 06:07:00,
2013-09-30 01:12:00,60.0,49.8,29.83,SSE,158,2.0,5.0,69,0.00,,---,0.00,0.00,VWS V14.01,2013-09-30 06:12:00,
2013-09-30 01:17:00,60.0,49.8,29.83,South,182,3.0,5.0,69,0.00,,---,0.00,0.00,VWS V14.01,2013-09-30 06:17:00,
2013-09-30 01:22:00,60.1,49.9,29.83,SSE,160,2.0,4.0,69,0.00,,---,0.00,0.00,VWS V14.01,2013-09-30 06:22:00,
2013-09-30 01:27:00,60.1,49.9,29.84,SSE,159,0.0,1.0,69,0.00,,---,0.00,0.00,VWS V14.01,2013-09-30 06:27:00,
2013-09-30 01:32:00,60.0,49.8,29.84,SSE,159,0.0,0.0,69,0.00,,---,0.00,0.00,VWS V14.01,2013-09-30 06:32:00,
2013-09-30 01:37:00,59.9,49.7,29.84,SSE,159,3.0,3.0,69,0.00,,---,0.00,0.00,VWS V14.01,2013-09-30 06:37:00,
2013-09-30 01:42:00,59.7,49.9,29.83,SSE,159,1.0,2.0,70,0.00,,---,0.00,0.00,VWS V14.01,2013-09-30 06:42:00,
2013-09-30 01:47:00,59.4,50.0,29.83,SSE,160,3.0,3.0,71,0.00,,---,0.00,0.00,VWS V14.01,2013-09-30 06:47:00,
2013-09-30 01:52:00,59.1,49.7,29.83,SSE,160,2.0,3.0,71,0.00,,---,0.00,0.00,VWS V14.01,2013-09-30 06:52:00,
2013-09-30 01:57:00,58.7,49.7,29.83,South,172,2.0,3.0,72,0.00,,---,0.00,0.00,VWS V14.01,2013-09-30 06:57:00,
2013-09-30 02:02:00,58.5,49.5,29.83,SSW,192,2.0,2.0,72,0.00,,---,0.00,0.00,VWS V14.01,2013-09-30 07:02:00,
2013-09-30 02:07:00,58.3,49.3,29.84,SSW,192,2.0,3.0,72,0.00,,---,0.00,0.00,VWS V14.01,2013-09-30 07:07:00,
2013-09-30 02:12:00,58.2,49.2,29.83,South,181,2.0,3.0,72,0.00,,---,0.00,0.00,VWS V14.01,2013-09-30 07:12:00,
2013-09-30 02:17:00,58.2,49.6,29.83,South,173,1.0,3.0,73,0.00,,---,0.00,0.00,VWS V14.01,2013-09-30 07:17:00,
2013-09-30 02:22:00,58.1,49.5,29.83,South,173,0.0,1.0,73,0.00,,---,0.00,0.00,VWS V14.01,2013-09-30 07:22:00,
2013-09-30 02:27:00,58.0,49.4,29.83,South,173,2.0,2.0,73,0.00,,---,0.00,0.00,VWS V14.01,2013-09-30 07:27:00,
2013-09-30 02:32:00,57.9,49.7,29.83,South,171,0.0,1.0,74,0.00,,---,0.00,0.00,VWS V14.01,2013-09-30 07:32:00,
2013-09-30 02:37:00,57.8,49.6,29.83,South,171,1.0,2.0,74,0.00,,---,0.00,0.00,VWS V14.01,2013-09-30 07:37:00,
2013-09-30 02:42:00,57.7,49.5,29.83,South,171,1.0,2.0,74,0.00,,---,0.00,0.00,VWS V14.01,2013-09-30 07:42:00,
2013-09-30 02:47:00,57.5,49.3,29.83,South,171,0.0,1.0,74,0.00,,---,0.00,0.00,VWS V14.01,2013-09-30 07:47:00,
2013-09-30 02:52:00,57.3,49.5,29.83,South,171,1.0,2.0,75,0.00,,---,0.00,0.00,VWS V14.01,2013-09-30 07:52:00,
2013-09-30 02:57:00,57.2,49.4,29.82,SSE,157,2.0,3.0,75,0.00,,---,0.00,0.00,VWS V14.01,2013-09-30 07:57:00,
2013-09-30 03:02:00,57.1,49.3,29.82,SSE,156,0.0,1.0,75,0.00,,---,0.00,0.00,VWS V14.01,2013-09-30 08:02:00,
2013-09-30 03:07:00,57.0,49.2,29.82,SSE,156,1.0,1.0,75,0.00,,---,0.00,0.00,VWS V14.01,2013-09-30 08:07:00,
2013-09-30 03:12:00,56.9,49.1,29.82,SSE,156,1.0,1.0,75,0.00,,---,0.00,0.00,VWS V14.01,2013-09-30 08:12:00,
2013-09-30 03:17:00,56.8,49.0,29.82,SSE,156,1.0,2.0,75,0.00,,---,0.00,0.00,VWS V14.01,2013-09-30 08:17:00,
2013-09-30 03:22:00,56.8,49.0,29.82,SSE,168,3.0,3.0,75,0.00,,---,0.00,0.00,VWS V14.01,2013-09-30 08:22:00,
2013-09-30 03:27:00,57.1,48.9,29.81,South,173,4.0,7.0,74,0.00,,---,0.00,0.00,VWS V14.01,2013-09-30 08:27:00,
2013-09-30 03:32:00,57.6,49.4,29.81,SSE,165,6.0,6.0,74,0.00,,---,0.00,0.00,VWS V14.01,2013-09-30 08:32:00,
2013-09-30 03:37:00,58.1,49.5,29.81,SSE,163,4.0,6.0,73,0.00,,---,0.00,0.00,VWS V14.01,2013-09-30 08:37:00,
2013-09-30 03:42:00,58.2,49.6,29.81,SSE,155,3.0,5.0,73,0.00,,---,0.00,0.00,VWS V14.01,2013-09-30 08:42:00,
2013-09-30 03:47:00,58.4,49.8,29.81,SSE,162,3.0,4.0,73,0.00,,---,0.00,0.00,VWS V14.01,2013-09-30 08:47:00,
2013-09-30 03:52:00,58.3,49.7,29.81,South,175,2.0,3.0,73,0.00,,---,0.00,0.00,VWS V14.01,2013-09-30 08:52:00,
2013-09-30 03:57:00,58.3,49.3,29.81,South,177,2.0,5.0,72,0.00,,---,0.00,0.00,VWS V14.01,2013-09-30 08:57:00,
2013-09-30 04:02:00,58.3,49.3,29.80,South,182,3.0,7.0,72,0.00,,---,0.00,0.00,VWS V14.01,2013-09-30 09:02:00,
2013-09-30 04:07:00,58.4,49.4,29.80,SSE,162,4.0,5.0,72,0.00,,---,0.00,0.00,VWS V14.01,2013-09-30 09:07:00,
2013-09-30 04:12:00,58.5,49.5,29.80,South,180,6.0,6.0,72,0.00,,---,0.00,0.00,VWS V14.01,2013-09-30 09:12:00,
2013-09-30 04:17:00,58.7,49.7,29.79,SSE,160,10.0,10.0,72,0.00,,---,0.00,0.00,VWS V14.01,2013-09-30 09:17:00,
2013-09-30 04:22:00,59.0,50.0,29.79,South,176,4.0,8.0,72,0.00,,---,0.00,0.00,VWS V14.01,2013-09-30 09:22:00,
2013-09-30 04:27:00,59.2,50.2,29.79,SSE,159,5.0,6.0,72,0.00,,---,0.00,0.00,VWS V14.01,2013-09-30 09:27:00,
2013-09-30 04:32:00,59.4,50.0,29.79,SSE,154,6.0,7.0,71,0.00,,---,0.00,0.00,VWS V14.01,2013-09-30 09:32:00,
2013-09-30 04:37:00,59.5,50.1,29.79,SSE,168,3.0,5.0,71,0.00,,---,0.00,0.00,VWS V14.01,2013-09-30 09:37:00,
2013-09-30 04:42:00,59.3,50.3,29.79,SSE,163,3.0,5.0,72,0.00,,---,0.00,0.00,VWS V14.01,2013-09-30 09:42:00,
2013-09-30 04:47:00,59.1,50.1,29.79,East,96,2.0,3.0,72,0.00,,---,0.00,0.00,VWS V14.01,2013-09-30 09:47:00,
2013-09-30 04:52:00,58.6,50.0,29.79,SSE,163,2.0,6.0,73,0.00,,---,0.00,0.00,VWS V14.01,2013-09-30 09:52:00,
2013-09-30 04:57:00,58.2,49.6,29.79,SSE,156,4.0,5.0,73,0.00,,---,0.00,0.00,VWS V14.01,2013-09-30 09:57:00,
2013-09-30 05:02:00,57.9,49.7,29.79,SSE,167,2.0,4.0,74,0.00,,---,0.00,0.00,VWS V14.01,2013-09-30 10:02:00,
2013-09-30 05:07:00,57.7,49.5,29.79,South,169,2.0,5.0,74,0.00,,---,0.00,0.00,VWS V14.01,2013-09-30 10:07:00,
2013-09-30 05:12:00,57.5,49.7,29.79,South,169,2.0,3.0,75,0.00,,---,0.00,0.00,VWS V14.01,2013-09-30 10:12:00,
2013-09-30 05:17:00,57.4,49.5,29.78,SSE,163,3.0,3.0,75,0.00,,---,0.00,0.00,VWS V14.01,2013-09-30 10:17:00,
2013-09-30 05:22:00,57.3,49.5,29.79,SSE,149,2.0,2.0,75,0.00,,---,0.00,0.00,VWS V14.01,2013-09-30 10:22:00,
2013-09-30 05:27:00,57.2,49.4,29.78,SSE,158,2.0,4.0,75,0.00,,---,0.00,0.00,VWS V14.01,2013-09-30 10:27:00,
2013-09-30 05:32:00,57.1,49.3,29.78,SSE,163,4.0,5.0,75,0.00,,---,0.00,0.00,VWS V14.01,2013-09-30 10:32:00,
2013-09-30 05:37:00,57.1,49.3,29.78,South,169,3.0,5.0,75,0.00,,---,0.00,0.00,VWS V14.01,2013-09-30 10:37:00,
2013-09-30 05:42:00,57.3,49.5,29.78,SSE,168,5.0,6.0,75,0.00,,---,0.00,0.00,VWS V14.01,2013-09-30 10:42:00,
2013-09-30 05:47:00,57.5,49.7,29.79,SSE,155,4.0,5.0,75,0.00,,---,0.00,0.00,VWS V14.01,2013-09-30 10:47:00,
2013-09-30 05:52:00,57.7,49.8,29.79,South,171,3.0,6.0,75,0.00,,---,0.00,0.00,VWS V14.01,2013-09-30 10:52:00,
2013-09-30 05:57:00,57.9,49.7,29.78,SSE,156,5.0,6.0,74,0.00,,---,0.00,0.00,VWS V14.01,2013-09-30 10:57:00,
2013-09-30 06:02:00,58.0,49.8,29.78,South,171,4.0,7.0,74,0.00,,---,0.00,0.00,VWS V14.01,2013-09-30 11:02:00,
2013-09-30 06:07:00,58.2,50.0,29.78,SSE,161,4.0,6.0,74,0.00,,---,0.00,0.00,VWS V14.01,2013-09-30 11:07:00,
2013-09-30 06:12:00,58.3,50.1,29.78,South,169,3.0,7.0,74,0.00,,---,0.00,0.00,VWS V14.01,2013-09-30 11:12:00,
2013-09-30 06:17:00,58.4,50.2,29.78,South,169,4.0,5.0,74,0.00,,---,0.00,0.00,VWS V14.01,2013-09-30 11:17:00,
2013-09-30 06:22:00,58.2,50.0,29.78,SSE,167,2.0,4.0,74,0.00,,---,0.00,0.00,VWS V14.01,2013-09-30 11:22:00,
2013-09-30 06:27:00,58.0,49.8,29.78,SSE,167,3.0,4.0,74,0.00,,---,0.00,0.00,VWS V14.01,2013-09-30 11:27:00,
2013-09-30 06:32:00,57.8,49.9,29.78,SSE,156,3.0,4.0,75,0.00,,---,0.00,0.00,VWS V14.01,2013-09-30 11:32:00,
2013-09-30 06:37:00,57.6,49.8,29.78,SSE,168,3.0,5.0,75,0.00,,---,0.00,0.00,VWS V14.01,2013-09-30 11:37:00,
2013-09-30 06:42:00,57.5,49.7,29.78,SSE,156,3.0,4.0,75,0.00,,---,0.00,0.00,VWS V14.01,2013-09-30 11:42:00,
2013-09-30 06:47:00,57.5,49.7,29.78,SSE,163,5.0,5.0,75,0.00,,---,0.00,0.00,VWS V14.01,2013-09-30 11:47:00,
2013-09-30 06:52:00,57.7,49.8,29.78,SSE,167,4.0,8.0,75,0.00,,---,0.00,0.00,VWS V14.01,2013-09-30 11:52:00,
2013-09-30 06:57:00,57.8,49.9,29.78,SSE,159,6.0,6.0,75,0.00,,---,0.00,0.00,VWS V14.01,2013-09-30 11:57:00,
2013-09-30 07:02:00,57.8,49.6,29.78,SSE,163,3.0,5.0,74,0.00,,---,0.00,0.00,VWS V14.01,2013-09-30 12:02:00,
2013-09-30 07:07:00,57.7,49.8,29.78,South,171,3.0,5.0,75,0.00,,---,0.00,0.00,VWS V14.01,2013-09-30 12:07:00,
2013-09-30 07:12:00,57.5,49.7,29.78,SSE,155,1.0,3.0,75,0.00,,---,0.00,0.00,VWS V14.01,2013-09-30 12:12:00,
2013-09-30 07:17:00,57.3,49.5,29.78,SSE,153,2.0,2.0,75,0.00,,---,0.00,0.00,VWS V14.01,2013-09-30 12:17:00,
2013-09-30 07:22:00,57.1,49.3,29.78,SSE,148,3.0,3.0,75,0.00,,---,0.00,0.00,VWS V14.01,2013-09-30 12:22:00,
2013-09-30 07:27:00,56.8,49.3,29.78,SSE,153,2.0,4.0,76,0.00,,---,0.00,0.00,VWS V14.01,2013-09-30 12:27:00,
2013-09-30 07:32:00,56.6,49.1,29.78,SSE,147,2.0,4.0,76,0.00,,---,0.00,5.00,VWS V14.01,2013-09-30 12:32:00,
2013-09-30 07:37:00,56.3,49.2,29.78,SSE,148,2.0,4.0,77,0.00,,---,0.00,7.00,VWS V14.01,2013-09-30 12:37:00,
2013-09-30 07:42:00,56.2,49.1,29.78,SSE,158,2.0,4.0,77,0.00,,---,0.00,11.00,VWS V14.01,2013-09-30 12:42:00,
2013-09-30 07:47:00,56.1,49.3,29.78,South,177,2.0,3.0,78,0.00,,---,0.00,12.00,VWS V14.01,2013-09-30 12:47:00,
2013-09-30 07:52:00,56.0,49.2,29.78,SSE,163,2.0,4.0,78,0.00,,---,0.00,16.00,VWS V14.01,2013-09-30 12:52:00,
2013-09-30 07:57:00,56.1,49.7,29.77,SSE,155,1.0,3.0,79,0.00,,---,0.00,25.00,VWS V14.01,2013-09-30 12:57:00,
2013-09-30 08:02:00,56.3,49.9,29.77,SSE,162,3.0,3.0,79,0.00,,---,0.00,33.00,VWS V14.01,2013-09-30 13:02:00,
2013-09-30 08:07:00,56.6,50.2,29.77,SE,142,1.0,4.0,79,0.00,,---,0.00,47.00,VWS V14.01,2013-09-30 13:07:00,
2013-09-30 08:12:00,57.0,50.6,29.77,SSE,157,7.0,10.0,79,0.00,,---,0.00,63.00,VWS V14.01,2013-09-30 13:12:00,
2013-09-30 08:17:00,57.8,50.7,29.77,SSE,155,6.0,7.0,77,0.00,,---,0.00,81.00,VWS V14.01,2013-09-30 13:17:00,
2013-09-30 08:22:00,58.5,50.6,29.77,SSE,163,5.0,7.0,75,0.00,,---,0.00,100.00,VWS V14.01,2013-09-30 13:22:00,
2013-09-30 08:27:00,59.0,50.7,29.77,SSE,147,2.0,5.0,74,0.00,,---,0.00,121.00,VWS V14.01,2013-09-30 13:27:00,
2013-09-30 08:32:00,59.5,51.2,29.78,SSE,154,3.0,3.0,74,0.00,,---,0.00,139.00,VWS V14.01,2013-09-30 13:32:00,
2013-09-30 08:37:00,60.0,51.7,29.78,South,173,5.0,5.0,74,0.00,,---,0.00,160.00,VWS V14.01,2013-09-30 13:37:00,
2013-09-30 08:42:00,60.5,51.8,29.78,ESE,119,2.0,4.0,73,0.00,,---,0.00,183.00,VWS V14.01,2013-09-30 13:42:00,
2013-09-30 08:46:00,61.1,52.4,29.78,South,185,2.0,4.0,73,0.00,,---,0.00,206.00,VWS V14.01,2013-09-30 13:46:00,
2013-09-30 08:52:00,61.4,52.3,29.78,SSE,150,6.0,9.0,72,0.00,,---,0.00,227.00,VWS V14.01,2013-09-30 13:52:00,
2013-09-30 08:56:00,61.7,52.2,29.78,SSE,167,6.0,7.0,71,0.00,,---,0.00,248.00,VWS V14.01,2013-09-30 13:56:00,
2013-09-30 09:01:00,62.0,52.5,29.78,SSE,149,6.0,11.0,71,0.00,,---,0.00,265.00,VWS V14.01,2013-09-30 14:01:00,
2013-09-30 09:07:00,62.2,52.3,29.78,South,175,7.0,11.0,70,0.00,,---,0.00,281.00,VWS V14.01,2013-09-30 14:07:00,
2013-09-30 09:11:00,62.7,52.8,29.78,SSE,163,9.0,9.0,70,0.00,,---,0.00,301.00,VWS V14.01,2013-09-30 14:11:00,
2013-09-30 09:16:00,63.1,52.8,29.78,SSE,163,10.0,13.0,69,0.00,,---,0.00,318.00,VWS V14.01,2013-09-30 14:16:00,
2013-09-30 09:21:00,63.6,52.9,29.77,SSE,157,5.0,6.0,68,0.00,,---,0.00,336.00,VWS V14.01,2013-09-30 14:21:00,
2013-09-30 09:26:00,64.2,53.0,29.77,SE,146,5.0,9.0,67,0.00,,---,0.00,353.00,VWS V14.01,2013-09-30 14:26:00,
2013-09-30 09:31:00,64.8,53.6,29.77,South,183,8.0,10.0,67,0.00,,---,0.00,373.00,VWS V14.01,2013-09-30 14:31:00,
2013-09-30 09:36:00,65.4,53.3,29.77,SSE,161,11.0,11.0,65,0.00,,---,0.00,387.00,VWS V14.01,2013-09-30 14:36:00,
2013-09-30 09:41:00,65.9,53.4,29.77,SSE,167,6.0,12.0,64,0.00,,---,0.00,404.00,VWS V14.01,2013-09-30 14:41:00,
2013-09-30 09:46:00,66.4,53.4,29.77,South,175,11.0,15.0,63,0.00,,---,0.00,422.00,VWS V14.01,2013-09-30 14:46:00,
2013-09-30 09:51:00,66.7,54.2,29.77,SSE,161,11.0,14.0,64,0.00,,---,0.00,438.00,VWS V14.01,2013-09-30 14:51:00,
2013-09-30 09:57:00,67.1,54.1,29.77,SSE,156,9.0,10.0,63,0.00,,---,0.00,455.00,VWS V14.01,2013-09-30 14:57:00,
2013-09-30 10:02:00,67.6,54.6,29.77,SSE,153,4.0,14.0,63,0.00,,---,0.00,471.00,VWS V14.01,2013-09-30 15:02:00,
2013-09-30 10:07:00,67.7,53.8,29.77,South,175,9.0,13.0,61,0.00,,---,0.00,487.00,VWS V14.01,2013-09-30 15:07:00,
2013-09-30 10:12:00,68.1,54.6,29.77,SSE,165,6.0,11.0,62,0.00,,---,0.00,503.00,VWS V14.01,2013-09-30 15:12:00,
2013-09-30 10:17:00,68.6,54.6,29.77,South,182,10.0,10.0,61,0.00,,---,0.00,520.00,VWS V14.01,2013-09-30 15:17:00,
2013-09-30 10:22:00,69.0,54.5,29.77,South,178,7.0,14.0,60,0.00,,---,0.00,533.00,VWS V14.01,2013-09-30 15:22:00,
2013-09-30 10:27:00,69.5,54.6,29.77,SSE,165,6.0,8.0,59,0.00,,---,0.00,548.00,VWS V14.01,2013-09-30 15:27:00,
2013-09-30 10:32:00,69.9,54.5,29.77,SE,142,6.0,13.0,58,0.00,,---,0.00,563.00,VWS V14.01,2013-09-30 15:32:00,
2013-09-30 10:37:00,70.3,54.8,29.77,SSE,161,9.0,13.0,58,0.00,,---,0.00,577.00,VWS V14.01,2013-09-30 15:37:00,
2013-09-30 10:42:00,70.9,54.9,29.77,SSE,168,7.0,7.0,57,0.00,,---,0.00,591.00,VWS V14.01,2013-09-30 15:42:00,
2013-09-30 10:47:00,71.8,55.3,29.77,SSW,193,8.0,9.0,56,0.00,,---,0.00,606.00,VWS V14.01,2013-09-30 15:47:00,
2013-09-30 10:52:00,72.3,54.7,29.77,SSE,163,4.0,13.0,54,0.00,,---,0.00,621.00,VWS V14.01,2013-09-30 15:52:00,
2013-09-30 10:57:00,72.8,54.7,29.77,SSE,151,7.0,12.0,53,0.00,,---,0.00,635.00,VWS V14.01,2013-09-30 15:57:00,
2013-09-30 11:02:00,73.2,54.5,29.77,SE,145,13.0,13.0,52,0.00,,---,0.00,645.00,VWS V14.01,2013-09-30 16:02:00,
2013-09-30 11:07:00,73.5,54.3,29.77,SSE,165,13.0,14.0,51,0.00,,---,0.00,659.00,VWS V14.01,2013-09-30 16:07:00,
2013-09-30 11:12:00,73.7,55.0,29.77,SE,146,4.0,6.0,52,0.00,,---,0.00,670.00,VWS V14.01,2013-09-30 16:12:00,
2013-09-30 11:17:00,74.1,54.3,29.76,SSE,152,5.0,13.0,50,0.00,,---,0.00,684.00,VWS V14.01,2013-09-30 16:17:00,
2013-09-30 11:22:00,74.7,54.8,29.76,South,175,3.0,9.0,50,0.00,,---,0.00,696.00,VWS V14.01,2013-09-30 16:22:00,
2013-09-30 11:27:00,75.1,54.7,29.76,South,181,9.0,15.0,49,0.00,,---,0.00,708.00,VWS V14.01,2013-09-30 16:27:00,
2013-09-30 11:32:00,75.6,55.1,29.76,South,169,10.0,13.0,49,0.00,,---,0.00,717.00,VWS V14.01,2013-09-30 16:32:00,
2013-09-30 11:37:00,75.8,55.3,29.76,South,182,3.0,10.0,49,0.00,,---,0.00,726.00,VWS V14.01,2013-09-30 16:37:00,
2013-09-30 11:42:00,76.4,54.7,29.76,SSE,160,9.0,13.0,47,0.00,,---,0.00,737.00,VWS V14.01,2013-09-30 16:42:00,
2013-09-30 11:47:00,76.8,55.1,29.76,SSE,157,13.0,13.0,47,0.00,,---,0.00,747.00,VWS V14.01,2013-09-30 16:47:00,
2013-09-30 11:52:00,76.6,54.9,29.75,SE,139,10.0,17.0,47,0.00,,---,0.00,754.00,VWS V14.01,2013-09-30 16:52:00,
2013-09-30 11:57:00,76.9,54.6,29.75,SE,144,5.0,16.0,46,0.00,,---,0.00,765.00,VWS V14.01,2013-09-30 16:57:00,
2013-09-30 12:02:00,77.6,55.8,29.75,SSE,153,12.0,13.0,47,0.00,,---,0.00,773.00,VWS V14.01,2013-09-30 17:02:00,
2013-09-30 12:07:00,78.0,55.0,29.75,SSE,148,13.0,15.0,45,0.00,,---,0.00,780.00,VWS V14.01,2013-09-30 17:07:00,
2013-09-30 12:12:00,78.1,55.0,29.74,SE,135,6.0,12.0,45,0.00,,---,0.00,789.00,VWS V14.01,2013-09-30 17:12:00,
2013-09-30 12:17:00,78.5,55.4,29.74,South,169,4.0,12.0,45,0.00,,---,0.00,795.00,VWS V14.01,2013-09-30 17:17:00,
2013-09-30 12:22:00,79.1,54.7,29.74,South,170,14.0,14.0,43,0.00,,---,0.00,803.00,VWS V14.01,2013-09-30 17:22:00,
2013-09-30 12:27:00,79.1,55.3,29.74,SSE,148,12.0,15.0,44,0.00,,---,0.00,809.00,VWS V14.01,2013-09-30 17:27:00,
2013-09-30 12:32:00,79.3,55.5,29.74,SSE,166,6.0,13.0,44,0.00,,---,0.00,814.00,VWS V14.01,2013-09-30 17:32:00,
2013-09-30 12:37:00,79.7,55.9,29.74,South,173,10.0,11.0,44,0.00,,---,0.00,816.00,VWS V14.01,2013-09-30 17:37:00,
2013-09-30 12:42:00,80.3,55.8,29.73,SSW,192,10.0,10.0,43,0.00,,---,0.00,824.00,VWS V14.01,2013-09-30 17:42:00,
2013-09-30 12:47:00,80.7,55.5,29.73,SSE,165,10.0,15.0,42,0.00,,---,0.00,828.00,VWS V14.01,2013-09-30 17:47:00,
2013-09-30 12:52:00,80.8,56.9,29.73,SSE,161,7.0,13.0,44,0.00,,---,0.00,831.00,VWS V14.01,2013-09-30 17:52:00,
2013-09-30 12:57:00,81.2,56.6,29.73,South,171,4.0,11.0,43,0.00,,---,0.00,837.00,VWS V14.01,2013-09-30 17:57:00,
2013-09-30 13:02:00,81.8,56.5,29.72,SE,144,14.0,15.0,42,0.00,,---,0.00,838.00,VWS V14.01,2013-09-30 18:02:00,
2013-09-30 13:07:00,82.0,56.7,29.72,South,175,4.0,8.0,42,0.00,,---,0.00,840.00,VWS V14.01,2013-09-30 18:07:00,
2013-09-30 13:12:00,82.1,56.8,29.72,ESE,103,5.0,9.0,42,0.00,,---,0.00,842.00,VWS V14.01,2013-09-30 18:12:00,
2013-09-30 13:17:00,82.7,56.0,29.72,SSE,155,8.0,8.0,40,0.00,,---,0.00,846.00,VWS V14.01,2013-09-30 18:17:00,
2013-09-30 13:22:00,82.8,55.3,29.72,South,169,13.0,14.0,39,0.00,,---,0.00,846.00,VWS V14.01,2013-09-30 18:22:00,
2013-09-30 13:27:00,83.0,56.2,29.72,ESE,120,3.0,6.0,40,0.00,,---,0.00,846.00,VWS V14.01,2013-09-30 18:27:00,
2013-09-30 13:32:00,83.4,55.2,29.71,SSE,154,9.0,9.0,38,0.00,,---,0.00,846.00,VWS V14.01,2013-09-30 18:32:00,
2013-09-30 13:37:00,83.9,56.3,29.71,SSE,153,7.0,10.0,39,0.00,,---,0.00,846.00,VWS V14.01,2013-09-30 18:37:00,
2013-09-30 13:42:00,84.3,55.2,29.71,SSE,161,6.0,11.0,37,0.00,,---,0.00,844.00,VWS V14.01,2013-09-30 18:42:00,
2013-09-30 13:47:00,84.8,55.7,29.70,SSE,160,9.0,10.0,37,0.00,,---,0.00,840.00,VWS V14.01,2013-09-30 18:47:00,
2013-09-30 13:52:00,84.8,56.4,29.70,SSE,155,12.0,16.0,38,0.00,,---,0.00,838.00,VWS V14.01,2013-09-30 18:52:00,
2013-09-30 13:57:00,85.1,55.9,29.70,South,175,9.0,11.0,37,0.00,,---,0.00,837.00,VWS V14.01,2013-09-30 18:57:00,
2013-09-30 14:02:00,85.3,56.8,29.70,SE,146,7.0,13.0,38,0.00,,---,0.00,833.00,VWS V14.01,2013-09-30 19:02:00,
2013-09-30 14:07:00,85.0,55.1,29.69,South,174,9.0,12.0,36,0.00,,---,0.00,830.00,VWS V14.01,2013-09-30 19:07:00,
2013-09-30 14:12:00,84.8,54.9,29.69,SSE,157,15.0,19.0,36,0.00,,---,0.00,824.00,VWS V14.01,2013-09-30 19:12:00,
2013-09-30 14:16:00,85.0,57.3,29.69,SSE,148,6.0,13.0,39,0.00,,---,0.00,819.00,VWS V14.01,2013-09-30 19:16:00,
2013-09-30 14:21:00,85.6,55.6,29.69,SSE,159,12.0,16.0,36,0.00,,---,0.00,816.00,VWS V14.01,2013-09-30 19:21:00,
2013-09-30 14:26:00,85.7,57.9,29.69,East,93,4.0,4.0,39,0.00,,---,0.00,809.00,VWS V14.01,2013-09-30 19:26:00,
2013-09-30 14:31:00,85.9,57.4,29.69,South,169,10.0,15.0,38,0.00,,---,0.00,803.00,VWS V14.01,2013-09-30 19:31:00,
2013-09-30 14:36:00,85.9,56.6,29.69,East,90,6.0,13.0,37,0.00,,---,0.00,800.00,VWS V14.01,2013-09-30 19:36:00,
2013-09-30 14:41:00,86.1,57.5,29.68,SE,126,9.0,16.0,38,0.00,,---,0.00,791.00,VWS V14.01,2013-09-30 19:41:00,
2013-09-30 14:46:00,86.4,57.8,29.68,SSE,161,6.0,14.0,38,0.00,,---,0.00,786.00,VWS V14.01,2013-09-30 19:46:00,
2013-09-30 14:51:00,86.9,56.8,29.68,South,169,12.0,14.0,36,0.00,,---,0.00,782.00,VWS V14.01,2013-09-30 19:51:00,
2013-09-30 14:56:00,86.7,57.3,29.68,South,178,4.0,7.0,37,0.00,,---,0.00,773.00,VWS V14.01,2013-09-30 19:56:00,
2013-09-30 15:01:00,87.2,57.0,29.67,SSE,156,11.0,15.0,36,0.00,,---,0.00,766.00,VWS V14.01,2013-09-30 20:01:00,
2013-09-30 15:06:00,87.0,56.1,29.67,SE,140,4.0,10.0,35,0.00,,---,0.00,756.00,VWS V14.01,2013-09-30 20:06:00,
2013-09-30 15:11:00,87.4,56.4,29.67,South,174,16.0,18.0,35,0.00,,---,0.00,747.00,VWS V14.01,2013-09-30 20:11:00,
2013-09-30 15:16:00,87.6,57.4,29.67,SSE,159,6.0,12.0,36,0.00,,---,0.00,742.00,VWS V14.01,2013-09-30 20:16:00,
2013-09-30 15:21:00,87.6,58.1,29.67,South,169,10.0,16.0,37,0.00,,---,0.00,729.00,VWS V14.01,2013-09-30 20:21:00,
2013-09-30 15:26:00,87.6,58.1,29.67,South,173,6.0,12.0,37,0.00,,---,0.00,717.00,VWS V14.01,2013-09-30 20:26:00,
2013-09-30 15:31:00,87.4,57.2,29.67,South,186,13.0,14.0,36,0.00,,---,0.00,708.00,VWS V14.01,2013-09-30 20:31:00,
2013-09-30 15:36:00,87.7,58.2,29.67,SSE,163,6.0,12.0,37,0.00,,---,0.00,694.00,VWS V14.01,2013-09-30 20:36:00,
2013-09-30 15:41:00,88.2,57.9,29.67,South,182,12.0,19.0,36,0.00,,---,0.00,686.00,VWS V14.01,2013-09-30 20:41:00,
2013-09-30 15:46:00,88.2,58.7,29.66,SE,144,10.0,15.0,37,0.00,,---,0.00,670.00,VWS V14.01,2013-09-30 20:46:00,
2013-09-30 15:51:00,88.6,58.2,29.66,South,180,8.0,13.0,36,0.00,,---,0.00,661.00,VWS V14.01,2013-09-30 20:51:00,
2013-09-30 15:56:00,88.6,59.0,29.66,SSE,162,8.0,15.0,37,0.00,,---,0.00,645.00,VWS V14.01,2013-09-30 20:56:00,
2013-09-30 16:01:00,88.6,59.8,29.66,South,173,7.0,9.0,38,0.00,,---,0.00,629.00,VWS V14.01,2013-09-30 21:01:00,
2013-09-30 16:06:00,88.8,59.9,29.66,ESE,120,6.0,9.0,38,0.00,,---,0.00,615.00,VWS V14.01,2013-09-30 21:06:00,
2013-09-30 16:11:00,88.8,59.9,29.66,SSE,155,14.0,19.0,38,0.00,,---,0.00,605.00,VWS V14.01,2013-09-30 21:11:00,
2013-09-30 16:17:00,88.4,59.6,29.66,SSE,148,12.0,17.0,38,0.00,,---,0.00,591.00,VWS V14.01,2013-09-30 21:17:00,
2013-09-30 16:22:00,88.8,59.9,29.66,South,169,10.0,11.0,38,0.00,,---,0.00,571.00,VWS V14.01,2013-09-30 21:22:00,
2013-09-30 16:27:00,88.8,59.2,29.66,SSE,161,5.0,14.0,37,0.00,,---,0.00,557.00,VWS V14.01,2013-09-30 21:27:00,
2013-09-30 16:32:00,88.8,59.9,29.66,SE,142,6.0,16.0,38,0.00,,---,0.00,540.00,VWS V14.01,2013-09-30 21:32:00,
2013-09-30 16:37:00,88.9,59.3,29.66,SSE,168,6.0,12.0,37,0.00,,---,0.00,529.00,VWS V14.01,2013-09-30 21:37:00,
2013-09-30 16:42:00,89.0,59.4,29.66,East,98,5.0,15.0,37,0.00,,---,0.00,512.00,VWS V14.01,2013-09-30 21:42:00,
2013-09-30 16:47:00,89.0,59.4,29.66,SE,138,10.0,21.0,37,0.00,,---,0.00,497.00,VWS V14.01,2013-09-30 21:47:00,
2013-09-30 16:52:00,88.6,59.0,29.66,SSE,159,11.0,16.0,37,0.00,,---,0.00,480.00,VWS V14.01,2013-09-30 21:52:00,
2013-09-30 16:57:00,88.5,59.7,29.65,SSE,155,11.0,21.0,38,0.00,,---,0.00,464.00,VWS V14.01,2013-09-30 21:57:00,
2013-09-30 17:02:00,88.5,59.7,29.65,SSE,166,10.0,11.0,38,0.00,,---,0.00,446.00,VWS V14.01,2013-09-30 22:02:00,
2013-09-30 17:07:00,88.6,59.8,29.66,SSE,151,6.0,10.0,38,0.00,,---,0.00,429.00,VWS V14.01,2013-09-30 22:07:00,
2013-09-30 17:12:00,88.5,58.9,29.66,SSE,164,10.0,18.0,37,0.00,,---,0.00,413.00,VWS V14.01,2013-09-30 22:12:00,
2013-09-30 17:17:00,88.4,58.8,29.66,SSE,157,6.0,10.0,37,0.00,,---,0.00,396.00,VWS V14.01,2013-09-30 22:17:00,
2013-09-30 17:22:00,88.2,57.9,29.65,South,169,5.0,12.0,36,0.00,,---,0.00,380.00,VWS V14.01,2013-09-30 22:22:00,
2013-09-30 17:27:00,87.8,57.5,29.65,ESE,114,10.0,18.0,36,0.00,,---,0.00,360.00,VWS V14.01,2013-09-30 22:27:00,
2013-09-30 17:32:00,87.6,56.6,29.66,ESE,110,4.0,11.0,35,0.00,,---,0.00,343.00,VWS V14.01,2013-09-30 22:32:00,
2013-09-30 17:37:00,87.5,56.5,29.66,SSE,161,14.0,16.0,35,0.00,,---,0.00,325.00,VWS V14.01,2013-09-30 22:37:00,
2013-09-30 17:42:00,87.2,56.2,29.65,SSE,166,7.0,13.0,35,0.00,,---,0.00,308.00,VWS V14.01,2013-09-30 22:42:00,
2013-09-30 17:47:00,87.2,56.2,29.66,ESE,117,9.0,12.0,35,0.00,,---,0.00,292.00,VWS V14.01,2013-09-30 22:47:00,
2013-09-30 17:52:00,87.0,56.1,29.66,SSE,166,13.0,16.0,35,0.00,,---,0.00,272.00,VWS V14.01,2013-09-30 22:52:00,
2013-09-30 17:57:00,86.8,55.9,29.66,SSE,167,10.0,11.0,35,0.00,,---,0.00,253.00,VWS V14.01,2013-09-30 22:57:00,
2013-09-30 18:02:00,86.8,55.1,29.66,SE,128,7.0,14.0,34,0.00,,---,0.00,232.00,VWS V14.01,2013-09-30 23:02:00,
2013-09-30 18:07:00,86.7,55.8,29.66,ENE,69,4.0,12.0,35,0.00,,---,0.00,209.00,VWS V14.01,2013-09-30 23:07:00,
2013-09-30 18:12:00,86.5,55.6,29.66,SSE,154,5.0,15.0,35,0.00,,---,0.00,186.00,VWS V14.01,2013-09-30 23:12:00,
2013-09-30 18:17:00,86.2,55.4,29.66,South,176,13.0,16.0,35,0.00,,---,0.00,169.00,VWS V14.01,2013-09-30 23:17:00,
2013-09-30 18:22:00,85.9,55.1,29.66,SSE,167,16.0,18.0,35,0.00,,---,0.00,146.00,VWS V14.01,2013-09-30 23:22:00,
2013-09-30 18:27:00,85.7,54.1,29.66,SSE,150,11.0,15.0,34,0.00,,---,0.00,127.00,VWS V14.01,2013-09-30 23:27:00,
2013-09-30 18:32:00,85.4,53.9,29.66,SSE,167,7.0,18.0,34,0.00,,---,0.00,105.00,VWS V14.01,2013-09-30 23:32:00,
2013-09-30 18:37:00,85.1,54.4,29.66,South,172,4.0,6.0,35,0.00,,---,0.00,86.00,VWS V14.01,2013-09-30 23:37:00,
2013-09-30 18:42:00,84.9,54.2,29.66,SSE,147,5.0,11.0,35,0.00,,---,0.00,69.00,VWS V14.01,2013-09-30 23:42:00,
2013-09-30 18:47:00,84.7,54.0,29.66,SSE,167,5.0,14.0,35,0.00,,---,0.00,51.00,VWS V14.01,2013-09-30 23:47:00,
2013-09-30 18:52:00,84.3,55.2,29.66,SSE,161,7.0,12.0,37,0.00,,---,0.00,40.00,VWS V14.01,2013-09-30 23:52:00,
2013-09-30 18:57:00,84.0,55.7,29.66,SSE,161,2.0,5.0,38,0.00,,---,0.00,26.00,VWS V14.01,2013-09-30 23:57:00,
2013-09-30 19:02:00,83.6,56.0,29.66,South,172,5.0,9.0,39,0.00,,---,0.00,18.00,VWS V14.01,2013-10-01 00:02:00,
2013-09-30 19:07:00,83.2,55.7,29.67,SSE,153,4.0,5.0,39,0.00,,---,0.00,14.00,VWS V14.01,2013-10-01 00:07:00,
2013-09-30 19:12:00,82.7,56.0,29.66,SSE,153,3.0,5.0,40,0.00,,---,0.00,11.00,VWS V14.01,2013-10-01 00:12:00,
2013-09-30 19:17:00,82.2,56.2,29.67,SSE,157,5.0,5.0,41,0.00,,---,0.00,7.00,VWS V14.01,2013-10-01 00:17:00,
2013-09-30 19:22:00,81.6,55.6,29.67,SE,126,2.0,5.0,41,0.00,,---,0.00,5.00,VWS V14.01,2013-10-01 00:22:00,
2013-09-30 19:27:00,81.1,55.2,29.67,SSE,147,2.0,5.0,41,0.00,,---,0.00,0.00,VWS V14.01,2013-10-01 00:27:00,
2013-09-30 19:32:00,80.5,54.7,29.67,SSE,153,4.0,7.0,41,0.00,,---,0.00,0.00,VWS V14.01,2013-10-01 00:32:00,
2013-09-30 19:37:00,80.2,54.4,29.67,SSE,161,6.0,7.0,41,0.00,,---,0.00,0.00,VWS V14.01,2013-10-01 00:37:00,
2013-09-30 19:42:00,79.8,54.0,29.67,SSE,153,5.0,9.0,41,0.00,,---,0.00,0.00,VWS V14.01,2013-10-01 00:42:00,
2013-09-30 19:47:00,79.4,53.7,29.67,SSE,150,4.0,6.0,41,0.00,,---,0.00,0.00,VWS V14.01,2013-10-01 00:47:00,
2013-09-30 19:52:00,78.9,53.9,29.67,ESE,111,2.0,3.0,42,0.00,,---,0.00,0.00,VWS V14.01,2013-10-01 00:52:00,
2013-09-30 19:57:00,78.6,53.6,29.67,SSE,151,2.0,3.0,42,0.00,,---,0.00,0.00,VWS V14.01,2013-10-01 00:57:00,
2013-09-30 20:02:00,78.2,53.9,29.67,SE,129,2.0,4.0,43,0.00,,---,0.00,0.00,VWS V14.01,2013-10-01 01:02:00,
2013-09-30 20:07:00,77.9,54.3,29.67,SSE,158,1.0,3.0,44,0.00,,---,0.00,0.00,VWS V14.01,2013-10-01 01:07:00,
2013-09-30 20:12:00,77.6,54.0,29.67,South,171,2.0,3.0,44,0.00,,---,0.00,0.00,VWS V14.01,2013-10-01 01:12:00,
2013-09-30 20:17:00,77.3,54.3,29.67,ESE,123,2.0,5.0,45,0.00,,---,0.00,0.00,VWS V14.01,2013-10-01 01:17:00,
2013-09-30 20:22:00,77.1,54.2,29.68,SE,145,2.0,2.0,45,0.00,,---,0.00,0.00,VWS V14.01,2013-10-01 01:22:00,
2013-09-30 20:27:00,76.8,54.5,29.68,ESE,113,3.0,3.0,46,0.00,,---,0.00,0.00,VWS V14.01,2013-10-01 01:27:00,
2013-09-30 20:32:00,76.7,55.0,29.68,SSE,148,2.0,2.0,47,0.00,,---,0.00,0.00,VWS V14.01,2013-10-01 01:32:00,
2013-09-30 20:37:00,76.4,55.3,29.68,ESE,108,0.0,2.0,48,0.00,,---,0.00,0.00,VWS V14.01,2013-10-01 01:37:00,
2013-09-30 20:42:00,76.2,55.7,29.68,ESE,108,1.0,3.0,49,0.00,,---,0.00,0.00,VWS V14.01,2013-10-01 01:42:00,
2013-09-30 20:47:00,75.8,55.9,29.68,ESE,108,2.0,2.0,50,0.00,,---,0.00,0.00,VWS V14.01,2013-10-01 01:47:00,
2013-09-30 20:52:00,75.3,55.9,29.68,East,101,2.0,4.0,51,0.00,,---,0.00,0.00,VWS V14.01,2013-10-01 01:52:00,
2013-09-30 20:57:00,74.8,56.0,29.69,East,97,2.0,2.0,52,0.00,,---,0.00,0.00,VWS V14.01,2013-10-01 01:57:00,
2013-09-30 21:02:00,74.4,56.2,29.68,SE,126,3.0,4.0,53,0.00,,---,0.00,0.00,VWS V14.01,2013-10-01 02:02:00,
2013-09-30 21:07:00,74.0,55.8,29.69,East,94,3.0,7.0,53,0.00,,---,0.00,0.00,VWS V14.01,2013-10-01 02:07:00,
2013-09-30 21:12:00,73.8,56.1,29.69,ESE,114,2.0,2.0,54,0.00,,---,0.00,0.00,VWS V14.01,2013-10-01 02:12:00,
2013-09-30 21:17:00,73.7,56.0,29.69,ESE,118,2.0,3.0,54,0.00,,---,0.00,0.00,VWS V14.01,2013-10-01 02:17:00,
2013-09-30 21:22:00,73.5,55.9,29.69,SE,142,2.0,2.0,54,0.00,,---,0.00,0.00,VWS V14.01,2013-10-01 02:22:00,
2013-09-30 21:27:00,73.3,55.7,29.69,ESE,107,2.0,2.0,54,0.00,,---,0.00,0.00,VWS V14.01,2013-10-01 02:27:00,
2013-09-30 21:32:00,73.2,55.6,29.70,ESE,115,1.0,2.0,54,0.00,,---,0.00,0.00,VWS V14.01,2013-10-01 02:32:00,
2013-09-30 21:37:00,73.0,55.4,29.70,ESE,114,2.0,3.0,54,0.00,,---,0.00,0.00,VWS V14.01,2013-10-01 02:37:00,
2013-09-30 21:42:00,72.8,55.2,29.70,SE,124,1.0,2.0,54,0.00,,---,0.00,0.00,VWS V14.01,2013-10-01 02:42:00,
2013-09-30 21:47:00,72.7,54.6,29.70,ESE,110,2.0,3.0,53,0.00,,---,0.00,0.00,VWS V14.01,2013-10-01 02:47:00,
2013-09-30 21:52:00,72.7,54.6,29.70,ESE,105,2.0,5.0,53,0.00,,---,0.00,0.00,VWS V14.01,2013-10-01 02:52:00,
2013-09-30 21:57:00,72.7,54.6,29.70,ESE,111,3.0,4.0,53,0.00,,---,0.00,0.00,VWS V14.01,2013-10-01 02:57:00,
2013-09-30 22:02:00,72.6,54.5,29.70,East,100,6.0,6.0,53,0.00,,---,0.00,0.00,VWS V14.01,2013-10-01 03:02:00,
2013-09-30 22:07:00,72.4,54.8,29.70,SE,146,1.0,5.0,54,0.00,,---,0.00,0.00,VWS V14.01,2013-10-01 03:07:00,
2013-09-30 22:12:00,72.2,55.2,29.70,ESE,120,3.0,3.0,55,0.00,,---,0.00,0.00,VWS V14.01,2013-10-01 03:12:00,
2013-09-30 22:17:00,71.9,54.9,29.70,SSE,155,2.0,3.0,55,0.00,,---,0.00,0.00,VWS V14.01,2013-10-01 03:17:00,
2013-09-30 22:22:00,71.6,54.6,29.70,East,99,2.0,3.0,55,0.00,,---,0.00,0.00,VWS V14.01,2013-10-01 03:22:00,
2013-09-30 22:27:00,71.4,54.4,29.70,East,93,2.0,3.0,55,0.00,,---,0.00,0.00,VWS V14.01,2013-10-01 03:27:00,
2013-09-30 22:32:00,71.1,54.6,29.70,ENE,75,2.0,3.0,56,0.00,,---,0.00,0.00,VWS V14.01,2013-10-01 03:32:00,
2013-09-30 22:37:00,70.9,54.4,29.70,SE,125,2.0,3.0,56,0.00,,---,0.00,0.00,VWS V14.01,2013-10-01 03:37:00,
2013-09-30 22:42:00,70.7,54.2,29.70,SE,132,1.0,2.0,56,0.00,,---,0.00,0.00,VWS V14.01,2013-10-01 03:42:00,
2013-09-30 22:47:00,70.6,54.2,29.71,ESE,123,1.0,2.0,56,0.00,,---,0.00,0.00,VWS V14.01,2013-10-01 03:47:00,
2013-09-30 22:52:00,70.5,54.1,29.71,ESE,122,2.0,3.0,56,0.00,,---,0.00,0.00,VWS V14.01,2013-10-01 03:52:00,
2013-09-30 22:57:00,70.5,54.1,29.71,SE,138,3.0,3.0,56,0.00,,---,0.00,0.00,VWS V14.01,2013-10-01 03:57:00,
2013-09-30 23:01:00,70.6,54.2,29.71,SE,136,2.0,3.0,56,0.00,,---,0.00,0.00,VWS V14.01,2013-10-01 04:01:00,
2013-09-30 23:02:00,70.6,54.2,29.71,East,88,4.0,4.0,56,0.00,,---,0.00,0.00,VWS V14.01,2013-10-01 04:02:00,
2013-09-30 23:07:00,70.6,54.2,29.71,South,169,2.0,4.0,56,0.00,,---,0.00,0.00,VWS V14.01,2013-10-01 04:07:00,
2013-09-30 23:12:00,70.6,54.2,29.71,SE,138,3.0,3.0,56,0.00,,---,0.00,0.00,VWS V14.01,2013-10-01 04:12:00,
2013-09-30 23:17:00,70.5,54.1,29.71,SSE,149,3.0,4.0,56,0.00,,---,0.00,0.00,VWS V14.01,2013-10-01 04:17:00,
2013-09-30 23:22:00,70.5,54.1,29.71,SE,141,3.0,4.0,56,0.00,,---,0.00,0.00,VWS V14.01,2013-10-01 04:22:00,
2013-09-30 23:27:00,70.4,54.0,29.70,SE,144,3.0,4.0,56,0.00,,---,0.00,0.00,VWS V14.01,2013-10-01 04:27:00,
2013-09-30 23:32:00,70.3,53.9,29.71,ESE,120,2.0,4.0,56,0.00,,---,0.00,0.00,VWS V14.01,2013-10-01 04:32:00,
2013-09-30 23:37:00,70.3,53.9,29.71,SSE,161,2.0,4.0,56,0.00,,---,0.00,0.00,VWS V14.01,2013-10-01 04:37:00,
2013-09-30 23:42:00,70.3,53.9,29.71,South,175,5.0,8.0,56,0.00,,---,0.00,0.00,VWS V14.01,2013-10-01 04:42:00,
2013-09-30 23:47:00,70.2,53.8,29.71,SSE,156,2.0,2.0,56,0.00,,---,0.00,0.00,VWS V14.01,2013-10-01 04:47:00,
2013-09-30 23:52:00,70.1,53.7,29.71,SE,141,2.0,5.0,56,0.00,,---,0.00,0.00,VWS V14.01,2013-10-01 04:52:00,
2013-09-30 23:57:00,70.1,54.2,29.71,SE,125,2.0,4.0,57,0.00,,---,0.00,0.00,VWS V14.01,2013-10-01 04:57:00,